Location: Oberstdorf
(47.4188°N, 10.2969°E)
Time: 22:14:55
(UTC+01:00)

ISS - Pass Details

Date: 07 January 2018
Orbit: 401 x 407 km, 51.6° (Epoch: 17 January)

Event Time Altitude Azimuth Distance (km) Brightness Sun altitude
Exits shadow 05:57:42 35° 22° (NNE) 680 -2.7 -20.8°
Drops below altitude 10° 06:00:19 10° 70° (ENE) 1,468 -0.2 -20.3°
Sets 06:02:30 0° 79° (E) 2,329 1.2 -20.0°
